Fosston, MN

11:05 PM CDT on June 28, 2017 (GMT -0500)
Fosston Municipal

Weather History for KFSE - October, 2011

Change the Weather History Date:

Sunday, October 23, 2011

  Actual Average Record
Temperature  
Mean Temperature 46 °F -  
Max Temperature 57 °F 53 °F 83 °F (1963)
Min Temperature 35 °F 29 °F 10 °F (1976)
Degree Days  
Heating Degree Days 19    
Moisture  
Dew Point 36 °F    
Average Humidity 76    
Maximum Humidity 100    
Minimum Humidity 38    
Precipitation  
Precipitation 0.00 in - - ()
Sea Level Pressure  
Sea Level Pressure 29.78 in    
Wind  
Wind Speed 5 mph (WSW)    
Max Wind Speed 16 mph    
Max Gust Speed 22 mph    
Visibility 10 miles    
Events      
Averages and records for this station are not official NWS values.
T = Trace of Precipitation, MM = Missing Value Source: NWS Daily Summary

Daily Weather History Graph

Daily Weather History Graph

Search for Another Location

Airport or City:

Trip Planner

Search our weather history database for the weather conditions in past years. The results will help you decide how hot, cold, wet, or windy it might be!

Date:

Astronomy

Oct. 23, 2011 Rise Set
Actual Time 7:53 AM CDT 6:20 PM CDT
Civil Twilight 7:21 AM CDT 6:52 PM CDT
Nautical Twilight 6:45 AM CDT 7:28 PM CDT
Astronomical Twilight 6:10 AM CDT 8:03 PM CDT
Moon 3:47 AM CDT (10/23) 4:23 PM CDT (10/23)
Length of Visible Light 11h 30m
Length of Day
10h 27m
Waning Crescent, 14% of the Moon is Illuminated
Oct 23
Waning Crescent
Oct 26
New
Nov 2
First Quarter
Nov 10
Full
Nov 18
Last Quarter

Hourly Weather History & Observations

Time (CDT) Temp. Windchill Dew Point Humidity Pressure Visibility Wind Dir Wind Speed Gust Speed Precip Events Conditions
12:15 AM 44.6 °F 38.8 °F 42.8 °F 93% 29.75 in 10.0 mi South 11.5 mph - N/A   Clear
12:34 AM 44.6 °F 38.8 °F 42.8 °F 93% 29.75 in 10.0 mi South 11.5 mph - N/A   Clear
12:55 AM 44.6 °F 39.2 °F 41.0 °F 87% 29.75 in 10.0 mi South 10.4 mph - N/A   Clear
1:15 AM 44.6 °F 39.7 °F 41.0 °F 87% 29.75 in 10.0 mi South 9.2 mph - N/A   Clear
1:35 AM 42.8 °F 37.0 °F 41.0 °F 93% 29.75 in 10.0 mi South 10.4 mph - N/A   Clear
1:55 AM 42.8 °F 38.0 °F 39.2 °F 87% 29.74 in 10.0 mi South 8.1 mph - N/A   Clear
2:15 AM 42.8 °F 38.0 °F 39.2 °F 87% 29.74 in 10.0 mi South 8.1 mph - N/A   Clear
2:34 AM 42.8 °F 38.6 °F 39.2 °F 87% 29.74 in 10.0 mi SSW 6.9 mph - N/A   Clear
2:55 AM 41.0 °F - 39.2 °F 93% 29.75 in 10.0 mi Calm Calm - N/A   Clear
3:15 AM 41.0 °F - 39.2 °F 93% 29.74 in 10.0 mi Calm Calm - N/A   Clear
3:35 AM 39.2 °F - 37.4 °F 93% 29.74 in 10.0 mi Calm Calm - N/A   Clear
3:55 AM 39.2 °F - 37.4 °F 93% 29.74 in 10.0 mi Calm Calm - N/A   Clear
4:15 AM 39.2 °F 33.6 °F 37.4 °F 93% 29.75 in 10.0 mi SSW 8.1 mph - N/A   Clear
4:34 AM 39.2 °F 37.0 °F 37.4 °F 93% 29.75 in 10.0 mi SSW 3.5 mph - N/A   Clear
5:15 AM 35.6 °F - 35.6 °F 100% 29.74 in 10.0 mi Calm Calm - N/A   Clear
5:35 AM 37.4 °F 32.1 °F 35.6 °F 93% 29.74 in 10.0 mi South 6.9 mph - N/A   Clear
5:55 AM 37.4 °F - 35.6 °F 93% 29.74 in 10.0 mi Calm Calm - N/A   Clear
6:15 AM 35.6 °F - 35.6 °F 100% 29.74 in 7.0 mi Calm Calm - N/A   Clear
6:35 AM 35.6 °F - 35.6 °F 100% 29.74 in 7.0 mi Calm Calm - N/A   Clear
6:55 AM 35.6 °F 32.8 °F 35.6 °F 100% 29.75 in 7.0 mi SW 3.5 mph - N/A   Clear
7:15 AM 37.4 °F - 35.6 °F 93% 29.75 in 10.0 mi Calm Calm - N/A   Clear
7:35 AM 37.4 °F - 35.6 °F 93% 29.76 in 7.0 mi Calm Calm - N/A   Mostly Cloudy
7:55 AM 37.4 °F - 35.6 °F 93% 29.76 in 7.0 mi Calm Calm - N/A   Scattered Clouds
8:15 AM 37.4 °F - 35.6 °F 93% 29.76 in 7.0 mi Calm Calm - N/A   Scattered Clouds
8:35 AM 37.4 °F - 37.4 °F 100% 29.77 in 7.0 mi Calm Calm - N/A   Scattered Clouds
8:55 AM 37.4 °F - 37.4 °F 100% 29.76 in 10.0 mi Calm Calm - N/A   Clear
9:14 AM 37.4 °F - 37.4 °F 100% 29.77 in 10.0 mi Calm Calm - N/A   Scattered Clouds
10:14 AM 42.8 °F - 41.0 °F 93% 29.78 in 10.0 mi Calm Calm - N/A   Scattered Clouds
10:35 AM 42.8 °F 38.6 °F 41.0 °F 93% 29.78 in 10.0 mi SW 6.9 mph - N/A   Scattered Clouds
10:55 AM 41.0 °F - 39.2 °F 93% 29.78 in 10.0 mi Calm Calm - N/A   Light Drizzle
11:14 AM 42.8 °F - 41.0 °F 93% 29.78 in 10.0 mi Calm Calm - N/A   Scattered Clouds
11:35 AM 42.8 °F - 41.0 °F 93% 29.78 in 10.0 mi Calm Calm - N/A   Scattered Clouds
11:55 AM 44.6 °F - 41.0 °F 87% 29.78 in 10.0 mi Calm Calm - N/A   Clear
12:15 PM 44.6 °F - 39.2 °F 81% 29.79 in 10.0 mi Calm Calm - N/A   Clear
12:35 PM 48.2 °F - 39.2 °F 71% 29.79 in 10.0 mi Calm Calm - N/A   Scattered Clouds
12:55 PM 50.0 °F - 39.2 °F 66% 29.79 in 10.0 mi West 6.9 mph - N/A   Scattered Clouds
1:14 PM 53.6 °F - 37.4 °F 54% 29.79 in 10.0 mi WNW 15.0 mph - N/A   Clear
1:35 PM 53.6 °F - 35.6 °F 51% 29.79 in 10.0 mi WNW 15.0 mph 19.6 mph N/A   Clear
1:55 PM 55.4 °F - 37.4 °F 51% 29.78 in 10.0 mi West 13.8 mph 19.6 mph N/A   Clear
2:14 PM 57.2 °F - 35.6 °F 44% 29.78 in 10.0 mi West 13.8 mph - N/A   Clear
2:35 PM 57.2 °F - 32.0 °F 38% 29.78 in 10.0 mi West 13.8 mph - N/A   Clear
2:55 PM 57.2 °F - 33.8 °F 41% 29.78 in 10.0 mi WNW 8.1 mph 19.6 mph N/A   Scattered Clouds
3:14 PM 57.2 °F - 35.6 °F 44% 29.78 in 10.0 mi Calm Calm - N/A   Mostly Cloudy
3:35 PM 57.2 °F - 32.0 °F 38% 29.78 in 10.0 mi West 12.7 mph 21.9 mph N/A   Mostly Cloudy
3:55 PM 55.4 °F - 30.2 °F 38% 29.78 in 10.0 mi West 12.7 mph 18.4 mph N/A   Mostly Cloudy
4:14 PM 57.2 °F - 32.0 °F 38% 29.78 in 10.0 mi West 16.1 mph - N/A   Scattered Clouds
4:35 PM 57.2 °F - 32.0 °F 38% 29.78 in 10.0 mi West 5.8 mph - N/A   Mostly Cloudy
4:55 PM 53.6 °F - 30.2 °F 41% 29.78 in 10.0 mi WNW 8.1 mph 17.3 mph N/A   Scattered Clouds
5:14 PM 53.6 °F - 32.0 °F 44% 29.79 in 10.0 mi Calm Calm - N/A   Mostly Cloudy
5:35 PM 51.8 °F - 30.2 °F 44% 29.80 in 10.0 mi Calm Calm - N/A   Mostly Cloudy
5:55 PM 51.8 °F - 30.2 °F 44% 29.80 in 10.0 mi Calm Calm - N/A   Scattered Clouds
6:35 PM 46.4 °F - 33.8 °F 62% 29.82 in 10.0 mi Calm Calm - N/A   Scattered Clouds
6:55 PM 46.4 °F - 33.8 °F 62% 29.82 in 10.0 mi Calm Calm - N/A   Scattered Clouds
7:14 PM 46.4 °F - 33.8 °F 62% 29.83 in 10.0 mi Calm Calm - N/A   Scattered Clouds
7:35 PM 44.6 °F - 33.8 °F 66% 29.83 in 10.0 mi Calm Calm - N/A   Scattered Clouds
7:55 PM 44.6 °F - 33.8 °F 66% 29.84 in 10.0 mi Calm Calm - N/A   Scattered Clouds
8:14 PM 44.6 °F - 35.6 °F 71% 29.84 in 10.0 mi Calm Calm - N/A   Clear
8:35 PM 44.6 °F - 35.6 °F 71% 29.84 in 10.0 mi Calm Calm - N/A   Clear
8:55 PM 42.8 °F - 33.8 °F 70% 29.85 in 10.0 mi Calm Calm - N/A   Clear
9:15 PM 41.0 °F - 33.8 °F 76% 29.85 in 10.0 mi Calm Calm - N/A   Clear
9:35 PM 39.2 °F - 32.0 °F 75% 29.86 in 10.0 mi Calm Calm - N/A   Clear
9:55 PM 39.2 °F - 33.8 °F 81% 29.86 in 10.0 mi Calm Calm - N/A   Clear
10:15 PM 37.4 °F - 32.0 °F 81% 29.87 in 10.0 mi Calm Calm - N/A   Clear
10:35 PM 37.4 °F - 30.2 °F 75% 29.87 in 10.0 mi Calm Calm - N/A   Clear
10:55 PM 35.6 °F - 30.2 °F 81% 29.87 in 10.0 mi Calm Calm - N/A   Clear
11:15 PM 35.6 °F - 30.2 °F 81% 29.87 in 10.0 mi Calm Calm - N/A   Clear
11:35 PM 33.8 °F - 28.4 °F 81% 29.88 in 10.0 mi Calm Calm - N/A   Clear